Regional Weather Roundup
Issued by NWS Albany, NY

Home | Current Version | Previous Version | Text Only | Print | Product List | Glossary On
Versions: 1 2 3 4 5 6 7 8 9 10 11 12 13 14 15 16 17 18 19 20 21 22 23 24 25 26 27 28 29 30 31 32 33 34 35 36 37 38 39 40 41 42 43 44 45 46 47 48 49 50
947
ASUS41 KALY 172110
RWRALY

NEW YORK STATE HOURLY WEATHER ROUNDUP
NATIONAL WEATHER SERVICE ALBANY NY
500 PM EDT THU AUG 17 2017

NOTE: "FAIR" INDICATES FEW OR NO CLOUDS BELOW 12,000 FEET WITH NO
SIGNIFICANT WEATHER AND/OR NO OBSTRUCTIONS TO VISIBILITY.

NYZ032-033-038>043-046>054-057>066-NYZ062>081-082-084-172200-
EAST


CITY           SKY/WX    TMP DP  RH WIND       PRES   REMARKS
ALBANY         PTSUNNY   81  48  31 SW3       29.97F
GLENS FALLS    SUNNY     77  53  43 S5        29.96F
POUGHKEEPSIE   MOSUNNY   81  60  48 S3        29.96F
NEWBURGH       MOSUNNY   81  66  61 VRB5      29.99F
MONTGOMERY     CLOUDY    82  63  52 SE5       29.97F
WHITE PLAINS   MOSUNNY   78  60  53 SE9       29.99F
ISLIP          PTSUNNY   77  58  51 SE10      30.00F
NEW YORK CITY  PTSUNNY   79  60  52 S12       29.98F
CENTRAL PARK   SUNNY     78  61  55 CALM      30.02F
$$

NYZ005>009-017-018-044>046-055-056-172200-
CENTRAL


CITY           SKY/WX    TMP DP  RH WIND       PRES   REMARKS
FULTON         CLOUDY    77  60  55 CALM      29.93F
SYRACUSE       CLOUDY    76  60  57 NE7       29.93F
ROME           CLOUDY    79  56  45 E7        29.95F
ELMIRA         PTSUNNY   84  66  54 S6        29.90F
BINGHAMTON     MOSUNNY   77  63  61 S7        29.98F
MONTICELLO     CLOUDY    78  62  57 S8        30.02F
$$

NYZ026>034-041>043-087-172200-
NORTH


CITY           SKY/WX    TMP DP  RH WIND       PRES   REMARKS
WATERTOWN      MOSUNNY   77  57  50 W3        29.93F
FORT DRUM      NOT AVBL
MASSENA        CLOUDY    77  54  44 CALM      29.96F
SARANAC LAKE   SUNNY     72  51  47 SW5       29.99F
PLATTSBURGH    MOSUNNY   75  57  53 S5        29.96F
$$

NYZ001>004-010>016-019>021-085-172200-
WEST


CITY           SKY/WX    TMP DP  RH WIND       PRES   REMARKS
NIAGARA FALLS  CLOUDY    77  67  71 E8        29.84F
BUFFALO        CLOUDY    79  68  69 E9        29.85F
DUNKIRK        CLOUDY    83  69  62 S5        29.83F
JAMESTOWN      CLOUDY    79  66  65 S10       29.91F
WELLSVILLE     CLOUDY    79  64  60 S5        29.97F
ROCHESTER      CLOUDY    78  65  63 SE8       29.89F
PENN YAN       CLOUDY    81  63  54 VRB6      29.92F
$$

             KEY
       WCI = WIND CHILL INDEX
       VSB = VISIBILITY
       HX  = HEAT INDEX
$$




USA.gov is the U.S. government's official web portal to all federal, state and local government web resources and services.